This demonstration page uses our WeatherBlox Daily Observations layout. Learn more.

38.88101, -77.10428

Hourly Observations for March 4, 2020

Temp ( °F °C ) Dew Point ( °F °C ) Humidity (%) Winds ( mph kmh ) Pressure ( in mb ) Visibility ( mi km ) Precip ( " mm )
12:52 am 00:52 Mostly Cloudy 52 11.1 35 1.7 53 53 WNW 17 28 29.77 1008 10 16.0934 0.001 0.001
1:52 am 01:52 Clear 52 11.1 33 0.6 49 49 W 16 26 29.8 1009 10 16.0934 0 0
2:52 am 02:52 Mostly Clear 50 10 32 0 50 50 W 12 19 29.81 1009 10 16.0934 0 0
3:52 am 03:52 Clear 50 10 30 -1.1 46 46 W 9 15 29.82 1010 10 16.0934 0 0
4:52 am 04:52 Clear 48 8.9 30 -1.1 50 50 S 5 7 29.84 1011 10 16.0934 0 0
5:52 am 05:52 Mostly Clear 48 8.9 30 -1.1 50 50 SSW 8 13 29.86 1011 10 16.0934 0 0
6:52 am 06:52 Mostly Sunny 49 9.4 30 -1.1 48 48 W 9 15 29.89 1012 10 16.0934 0 0
7:52 am 07:52 Mostly Sunny 51 10.6 29 -1.7 43 43 W 9 15 29.92 1013 10 16.0934 0 0
8:52 am 08:52 Mostly Sunny 52 11.1 29 -1.7 41 41 W 6 9 29.92 1013 10 16.0934 0 0
9:52 am 09:52 Mostly Sunny 56 13.3 26 -3.3 32 32 W 9 15 29.92 1013 10 16.0934 0 0
10:52 am 10:52 Mostly Sunny 58 14.4 24 -4.4 27 27 WNW 20 31 29.91 1013 10 16.0934 0 0
11:52 am 11:52 Mostly Sunny 61 16.1 24 -4.4 24 24 W 9 15 29.91 1013 10 16.0934 0 0
12:52 pm 12:52 Mostly Sunny 63 17.2 25 -3.9 24 24 WNW 16 26 29.87 1012 10 16.0934 0 0
1:52 pm 13:52 Mostly Sunny 64 17.8 27 -2.8 25 25 SW 13 20 29.85 1011 10 16.0934 0 0
2:52 pm 14:52 Mostly Sunny 65 18.3 24 -4.4 21 21 SW 10 17 29.83 1010 10 16.0934 0 0
3:52 pm 15:52 Partly Cloudy 65 18.3 25 -3.9 22 22 SW 18 30 29.82 1010 10 16.0934 0 0
4:52 pm 16:52 Partly Cloudy 63 17.2 25 -3.9 24 24 SSW 12 19 29.83 1010 10 16.0934 0 0
5:52 pm 17:52 Mostly Cloudy 61 16.1 26 -3.3 26 26 S 15 24 29.86 1011 10 16.0934 0 0
6:52 pm 18:52 Mostly Cloudy 59 15 27 -2.8 29 29 SSW 12 19 29.88 1012 10 16.0934 0 0
7:52 pm 19:52 Mostly Cloudy 58 14.4 27 -2.8 31 31 SW 8 13 29.9 1012 10 16.0934 0 0
8:52 pm 20:52 Mostly Cloudy 58 14.4 26 -3.3 29 29 WSW 7 11 29.9 1013 10 16.0934 0 0
9:52 pm 21:52 Mostly Cloudy 54 12.2 32 0 43 43 SW 5 7 29.91 1013 10 16.0934 0 0
10:52 pm 22:52 Mostly Cloudy 50 10 35 1.7 57 57 SSW 7 11 29.91 1013 10 16.0934 0 0
11:52 pm 23:52 Cloudy 53 11.7 28 -2.2 38 38 WSW 5 7 29.94 1014 10 16.0934 0 0

Powered by AerisWeather